GW1401 Weather Reports


Display with metric or nautical units.
time (UTC)temp
F
wind
direction
speed
MPH
gust
MPH
rain 1hr
in
rain 24hr
in
rain mn
in
humidity
%
barometer
mb
20260508185201 74 151 1.0 7.0 0.00 0.00 0.00 36 1015.9
20260508184658 74 188 2.0 8.0 0.00 0.00 0.00 41 1015.8
20260508184155 74 289 4.0 10.0 0.00 0.00 0.00 39 1015.8
20260508183652 74 156 2.0 8.0 0.00 0.00 0.00 40 1015.6
20260508183148 73 208 5.0 9.0 0.00 0.00 0.00 42 1015.6
20260508182644 73 131 3.0 10.0 0.00 0.00 0.00 39 1015.8
20260508182141 73 87 2.0 9.0 0.00 0.00 0.00 40 1015.5
20260508181636 72 139 6.0 10.0 0.00 0.00 0.00 40 1015.4
20260508181134 73 93 5.0 9.0 0.00 0.00 0.00 39 1015.6
20260508180631 73 189 3.0 5.0 0.00 0.00 0.00 42 1015.9
20260508180128 72 111 1.0 10.0 0.00 0.00 0.00 39 1016.1
20260508175624 72 175 3.0 8.0 0.00 0.00 0.00 38 1016.1
20260508175121 72 85 2.0 11.0 0.00 0.00 0.00 43 1016.1
20260508174618 73 195 5.0 9.0 0.00 0.00 0.00 39 1016.2
20260508174115 73 155 1.0 8.0 0.00 0.00 0.00 40 1016.5
20260508173612 72 0 3.0 7.0 0.00 0.00 0.00 37 1016.6
20260508173108 73 275 2.0 6.0 0.00 0.00 0.00 42 1016.5
20260508172606 72 167 3.0 15.0 0.00 0.00 0.00 40 1016.9
20260508172102 73 154 1.0 8.0 0.00 0.00 0.00 43 1017.0
20260508171559 73 164 1.0 7.0 0.00 0.00 0.00 41 1017.0
20260508171055 71 140 2.0 8.0 0.00 0.00 0.00 39 1017.0
20260508170553 73 358 3.0 7.0 0.00 0.00 0.00 39 1017.1
20260508170050 72 117 5.0 6.0 0.00 0.00 0.00 40 1017.3
20260508165547 72 118 0.0 0.0 0.00 0.00 0.00 40 1017.6
20260508165044 71 173 5.0 9.0 0.00 0.00 0.00 40 1017.7
20260508164540 71 267 3.0 9.0 0.00 0.00 0.00 38 1017.7
20260508164037 71 220 3.0 6.0 0.00 0.00 0.00 43 1017.7
20260508163534 71 130 3.0 9.0 0.00 0.00 0.00 40 1017.9
20260508163031 71 99 1.0 5.0 0.00 0.00 0.00 42 1018.0
20260508162528 71 310 3.0 5.0 0.00 0.00 0.00 42 1017.7
20260508162025 71 288 2.0 8.0 0.00 0.00 0.00 42 1018.2
20260508161522 70 120 1.0 2.0 0.00 0.00 0.00 48 1018.0
20260508161019 70 139 5.0 9.0 0.00 0.00 0.00 43 1017.9
20260508160518 71 214 3.0 6.0 0.00 0.00 0.00 43 1018.3
20260508160014 70 202 1.0 2.0 0.00 0.00 0.00 46 1018.3
20260508155511 71 244 3.0 5.0 0.00 0.00 0.00 43 1018.2
20260508155008 70 198 5.0 6.0 0.00 0.00 0.00 41 1018.3
20260508154506 70 276 3.0 5.0 0.00 0.00 0.00 45 1018.5
20260508154002 70 252 4.0 6.0 0.00 0.00 0.00 44 1018.7
20260508153459 68 209 5.0 9.0 0.00 0.00 0.00 44 1018.6
20260508152955 68 127 2.0 8.0 0.00 0.00 0.00 47 1019.0
20260508152452 68 276 1.0 8.0 0.00 0.00 0.00 46 1018.9
20260508151948 69 227 2.0 8.0 0.00 0.00 0.00 46 1019.2
20260508151445 69 142 1.0 3.0 0.00 0.00 0.00 47 1019.0
20260508150941 68 129 2.0 11.0 0.00 0.00 0.00 46 1019.0
20260508150438 68 262 1.0 6.0 0.00 0.00 0.00 46 1019.4
20260508145934 68 117 3.0 5.0 0.00 0.00 0.00 45 1019.4
20260508145431 68 160 1.0 5.0 0.00 0.00 0.00 44 1019.5
20260508144927 67 242 4.0 7.0 0.00 0.00 0.00 43 1019.6
20260508144425 67 253 4.0 7.0 0.00 0.00 0.00 45 1019.3
20260508143922 67 230 2.0 8.0 0.00 0.00 0.00 44 1019.5
20260508143420 67 147 3.0 5.0 0.00 0.00 0.00 45 1019.7
20260508142916 67 148 2.0 6.0 0.00 0.00 0.00 47 1019.5
20260508142413 67 251 3.0 5.0 0.00 0.00 0.00 48 1019.5
20260508141910 66 195 2.0 2.0 0.00 0.00 0.00 52 1019.6
20260508141406 65 321 4.0 6.0 0.00 0.00 0.00 51 1019.4
20260508140904 64 223 0.0 2.0 0.00 0.00 0.00 55 1019.5
20260508140401 64 156 1.0 5.0 0.00 0.00 0.00 55 1019.4
20260508135856 63 283 2.0 6.0 0.00 0.00 0.00 57 1019.4
20260508135353 62 142 3.0 5.0 0.00 0.00 0.00 56 1019.5
20260508134849 62 164 1.0 3.0 0.00 0.00 0.00 56 1019.7
20260508134346 62 326 1.0 3.0 0.00 0.00 0.00 57 1019.8
20260508133843 61 248 3.0 3.0 0.00 0.00 0.00 56 1019.6
20260508133341 60 130 0.0 2.0 0.00 0.00 0.00 60 1019.4
20260508132837 59 111 1.0 3.0 0.00 0.00 0.00 58 1019.5
20260508132335 58 122 0.0 2.0 0.00 0.00 0.00 63 1019.6
20260508131832 57 165 3.0 5.0 0.00 0.00 0.00 62 1019.7
20260508131327 57 126 0.0 2.0 0.00 0.00 0.00 63 1019.6
20260508130824 56 147 1.0 2.0 0.00 0.00 0.00 65 1019.4
20260508130321 56 133 2.0 3.0 0.00 0.00 0.00 65 1019.7
20260508125817 55 134 0.0 2.0 0.00 0.00 0.00 68 1019.6
20260508125314 54 126 0.0 1.0 0.00 0.00 0.00 68 1019.6
20260508124812 53 152 1.0 2.0 0.00 0.00 0.00 70 1019.7
20260508124308 52 155 0.0 2.0 0.00 0.00 0.00 76 1019.5
20260508123807 50 129 1.0 2.0 0.00 0.00 0.00 81 1019.4
20260508123305 47 115 1.0 1.0 0.00 0.00 0.00 96 1019.7
20260508122801 46 125 1.0 1.0 0.00 0.00 0.00 99 1019.5
20260508122258 45 133 0.0 1.0 0.00 0.00 0.00 99 1019.4
20260508121755 45 130 1.0 1.0 0.00 0.00 0.00 99 1019.5
20260508121254 44 117 0.0 0.0 0.00 0.00 0.00 99 1019.5
20260508120750 44 123 0.0 0.0 0.00 0.00 0.00 99 1019.5
20260508120249 43 119 0.0 0.0 0.00 0.00 0.00 99 1019.4
20260508115746 42 112 0.0 0.0 0.00 0.00 0.00 99 1019.7
20260508115243 41 123 0.0 1.0 0.00 0.00 0.00 99 1019.5
20260508114739 41 116 0.0 0.0 0.00 0.00 0.00 99 1019.5
20260508114236 40 114 0.0 0.0 0.00 0.00 0.00 99 1019.4
20260508113732 39 119 0.0 0.0 0.00 0.00 0.00 99 1019.3
20260508113231 39 120 0.0 0.0 0.00 0.00 0.00 99 1019.3
20260508112727 39 119 0.0 0.0 0.00 0.00 0.00 99 1019.3
20260508112224 39 117 0.0 0.0 0.00 0.00 0.00 99 1019.3
20260508111720 39 116 0.0 0.0 0.00 0.00 0.00 99 1019.1
20260508111219 39 119 0.0 0.0 0.00 0.00 0.00 99 1019.2
20260508110715 38 119 0.0 0.0 0.00 0.00 0.00 99 1019.1
20260508110212 38 119 0.0 0.0 0.00 0.00 0.00 99 1019.0
20260508105712 38 119 0.0 0.0 0.00 0.00 0.00 99 1019.0
20260508105209 38 119 0.0 0.0 0.00 0.00 0.00 99 1019.1
20260508104707 38 119 0.0 0.0 0.00 0.00 0.00 99 1019.0
20260508104203 38 119 0.0 0.0 0.00 0.00 0.00 99 1019.0
20260508103701 38 121 0.0 0.0 0.00 0.00 0.00 99 1019.0
20260508103158 38 121 0.0 0.0 0.00 0.00 0.00 99 1018.9
20260508102655 38 119 0.0 0.0 0.00 0.00 0.00 99 1019.0
20260508102153 38 119 0.0 0.0 0.00 0.00 0.00 99 1018.9
20260508101649 38 119 0.0 0.0 0.00 0.00 0.00 99 1019.1
20260508101147 38 119 0.0 0.0 0.00 0.00 0.00 99 1018.8
20260508100644 38 119 0.0 0.0 0.00 0.00 0.00 99 1019.0
20260508100143 38 119 0.0 0.0 0.00 0.00 0.00 99 1019.0
20260508095639 38 119 0.0 0.0 0.00 0.00 0.00 99 1018.7
20260508095136 38 119 0.0 0.0 0.00 0.00 0.00 99 1018.8
20260508094633 38 119 0.0 0.0 0.00 0.00 0.00 99 1018.9
20260508094129 38 120 0.0 0.0 0.00 0.00 0.00 99 1018.8
20260508093627 38 121 0.0 0.0 0.00 0.00 0.00 99 1019.0
20260508093124 38 117 0.0 0.0 0.00 0.00 0.00 99 1018.9
20260508092621 38 117 0.0 0.0 0.00 0.00 0.00 99 1018.8
20260508092120 38 117 0.0 0.0 0.00 0.00 0.00 99 1018.9
20260508091617 38 117 0.0 0.0 0.00 0.00 0.00 99 1019.1
20260508091114 39 117 0.0 0.0 0.00 0.00 0.00 99 1019.0
20260508090612 38 117 0.0 0.0 0.00 0.00 0.00 99 1019.0
20260508090109 38 117 0.0 0.0 0.00 0.00 0.00 99 1019.1
20260508085605 39 117 0.0 0.0 0.00 0.00 0.00 99 1018.8
20260508085102 38 117 0.0 0.0 0.00 0.00 0.00 99 1019.0
20260508084559 38 117 0.0 0.0 0.00 0.00 0.00 99 1019.0
20260508084056 39 117 0.0 0.0 0.00 0.00 0.00 99 1018.8
20260508083553 39 117 0.0 0.0 0.00 0.00 0.00 99 1019.1
20260508083050 39 117 0.0 0.0 0.00 0.00 0.00 99 1019.1
20260508082546 39 117 0.0 0.0 0.00 0.00 0.00 99 1019.2
20260508082043 39 117 0.0 0.0 0.00 0.00 0.00 99 1018.9
20260508081541 39 117 0.0 0.0 0.00 0.00 0.00 99 1019.1
20260508081036 39 117 0.0 0.0 0.00 0.00 0.00 99 1019.0
20260508080535 39 117 0.0 0.0 0.00 0.00 0.00 99 1018.9
20260508080032 39 117 0.0 0.0 0.00 0.00 0.00 99 1019.0
20260508075528 39 117 0.0 0.0 0.00 0.00 0.00 99 1019.0
20260508075026 39 117 0.0 0.0 0.00 0.00 0.00 99 1019.0
20260508074523 39 117 0.0 0.0 0.00 0.00 0.00 99 1019.0
20260508074020 39 117 0.0 0.0 0.00 0.00 0.00 99 1018.9
20260508073517 39 117 0.0 0.0 0.00 0.00 0.00 99 1019.0
20260508073015 39 117 0.0 0.0 0.00 0.00 0.00 99 1018.9
20260508072510 39 117 0.0 0.0 0.00 0.00 0.00 99 1018.9
20260508072008 39 117 0.0 0.0 0.00 0.00 0.00 99 1018.9
20260508071506 39 117 0.0 0.0 0.00 0.00 0.00 99 1019.1
20260508071003 40 117 0.0 0.0 0.00 0.00 0.00 99 1019.0
20260508070500 39 119 0.0 0.0 0.00 0.00 0.00 99 1019.0
20260508065958 40 119 0.0 0.0 0.00 0.00 0.00 99 1019.2
20260508065456 40 118 0.0 0.0 0.00 0.00 0.00 99 1019.1
20260508064954 39 118 0.0 0.0 0.00 0.00 0.00 99 1019.1
20260508064451 40 118 0.0 0.0 0.00 0.00 0.00 99 1019.2
20260508063949 40 118 0.0 0.0 0.00 0.00 0.00 99 1019.2
20260508063446 40 117 0.0 0.0 0.00 0.00 0.00 99 1019.3
20260508062944 40 119 0.0 0.0 0.00 0.00 0.00 99 1019.4
20260508062441 40 118 0.0 0.0 0.00 0.00 0.00 99 1019.4
20260508061938 40 117 0.0 0.0 0.00 0.00 0.00 99 1019.5
20260508061436 40 118 0.0 0.0 0.00 0.00 0.00 99 1019.5
20260508060931 41 118 0.0 0.0 0.00 0.00 0.00 99 1019.6
20260508060429 41 116 0.0 0.0 0.00 0.00 0.00 99 1019.4
20260508055925 41 121 0.0 0.0 0.00 0.00 0.00 99 1019.7
20260508055422 41 122 0.0 0.0 0.00 0.00 0.00 99 1019.5
20260508054918 41 124 0.0 0.0 0.00 0.00 0.00 99 1019.7
20260508054416 41 117 0.0 0.0 0.00 0.00 0.00 99 1019.5
20260508053913 41 114 0.0 0.0 0.00 0.00 0.00 99 1019.7
20260508053410 41 112 0.0 0.0 0.00 0.00 0.00 99 1019.7
20260508052907 41 118 0.0 0.0 0.00 0.00 0.00 99 1019.6
20260508052405 41 121 0.0 0.0 0.00 0.00 0.00 99 1019.6
20260508051900 41 121 0.0 0.0 0.00 0.00 0.00 99 1019.8
20260508051356 41 121 0.0 0.0 0.00 0.00 0.00 99 1019.7
20260508050853 41 121 0.0 0.0 0.00 0.00 0.00 99 1019.5
20260508050350 42 123 0.0 0.0 0.00 0.00 0.00 99 1019.5
20260508045846 41 118 0.0 0.0 0.00 0.00 0.00 99 1019.6
20260508045344 42 117 0.0 0.0 0.00 0.00 0.00 99 1019.7
20260508044841 42 119 0.0 0.0 0.00 0.00 0.00 99 1019.5
20260508044337 42 120 0.0 0.0 0.00 0.00 0.00 98 1019.5
20260508043833 42 119 0.0 0.0 0.00 0.00 0.00 98 1019.6
20260508043331 42 118 0.0 0.0 0.00 0.00 0.00 98 1019.5
20260508042827 42 119 0.0 0.0 0.00 0.00 0.00 98 1019.5
20260508042325 42 120 0.0 0.0 0.00 0.00 0.00 98 1019.5
20260508041822 42 120 0.0 0.0 0.00 0.00 0.00 98 1019.6
20260508041318 42 118 0.0 0.0 0.00 0.00 0.00 97 1019.6
20260508040814 42 118 0.0 0.0 0.00 0.00 0.00 97 1019.6
20260508040312 42 118 0.0 0.0 0.00 0.00 0.00 97 1019.7
20260508035809 42 118 0.0 0.0 0.00 0.00 0.00 97 1019.3
20260508035307 43 118 0.0 0.0 0.00 0.00 0.00 97 1019.6
20260508034803 43 119 0.0 0.0 0.00 0.00 0.00 97 1019.5
20260508034300 43 118 0.0 0.0 0.00 0.00 0.00 96 1019.4
20260508033757 43 119 0.0 0.0 0.00 0.00 0.00 96 1019.7
20260508033256 43 119 0.0 0.0 0.00 0.00 0.00 96 1019.7
20260508032753 43 119 0.0 0.0 0.00 0.00 0.00 96 1019.6
20260508032250 43 119 0.0 0.0 0.00 0.00 0.00 95 1019.6
20260508031746 43 119 0.0 0.0 0.00 0.00 0.00 95 1019.5
20260508031243 44 119 0.0 0.0 0.00 0.00 0.00 95 1019.8
20260508030739 44 119 0.0 0.0 0.00 0.00 0.00 94 1019.6
20260508030237 44 119 0.0 0.0 0.00 0.00 0.00 94 1019.7
20260508025733 44 119 0.0 0.0 0.00 0.00 0.00 94 1019.7
20260508025230 44 119 0.0 0.0 0.00 0.00 0.00 94 1019.7
20260508024726 44 119 0.0 0.0 0.00 0.00 0.00 93 1019.7
20260508024223 45 119 0.0 0.0 0.00 0.00 0.00 93 1019.9
20260508023720 45 119 0.0 0.0 0.00 0.00 0.00 93 1019.6
20260508023218 45 119 0.0 0.0 0.00 0.00 0.00 92 1019.6
20260508022713 45 119 0.0 0.0 0.00 0.00 0.00 91 1019.4
20260508022210 46 119 0.0 0.0 0.00 0.00 0.00 91 1019.5
20260508021707 46 119 0.0 0.0 0.00 0.00 0.00 90 1019.2
20260508021202 46 119 0.0 0.0 0.00 0.00 0.00 90 1019.2
20260508020700 46 119 0.0 0.0 0.00 0.00 0.00 89 1019.2
20260508020157 46 119 0.0 0.0 0.00 0.00 0.00 88 1019.0
20260508015654 47 119 0.0 0.0 0.00 0.00 0.00 87 1019.0
20260508015151 47 119 0.0 0.0 0.00 0.00 0.00 86 1018.9
20260508014648 47 119 0.0 0.0 0.00 0.00 0.00 84 1018.9
20260508014143 47 119 0.0 0.0 0.00 0.00 0.00 83 1018.9
20260508013640 48 119 0.0 0.0 0.00 0.00 0.00 83 1019.0
20260508013137 48 117 0.0 0.0 0.00 0.00 0.00 81 1018.9
20260508012635 48 139 0.0 0.0 0.00 0.00 0.00 82 1018.8
20260508012132 49 124 0.0 0.0 0.00 0.00 0.00 82 1018.8
20260508011630 49 118 0.0 0.0 0.00 0.00 0.00 81 1018.6
20260508011127 50 114 0.0 0.0 0.00 0.00 0.00 80 1018.6
20260508010624 50 115 0.0 0.0 0.00 0.00 0.00 78 1018.4
20260508010122 51 115 0.0 0.0 0.00 0.00 0.00 75 1018.3
20260508005619 51 115 0.0 0.0 0.00 0.00 0.00 72 1018.3
20260508005114 52 115 0.0 0.0 0.00 0.00 0.00 72 1018.5
20260508004610 53 115 0.0 0.0 0.00 0.00 0.00 68 1018.3
20260508004108 53 114 0.0 0.0 0.00 0.00 0.00 64 1018.3
20260508003604 54 115 0.0 0.0 0.00 0.00 0.00 63 1018.3
20260508003102 55 114 0.0 0.0 0.00 0.00 0.00 56 1018.1
20260508002558 56 114 0.0 0.0 0.00 0.00 0.00 60 1018.3
20260508002055 57 114 0.0 0.0 0.00 0.00 0.00 57 1018.2
20260508001551 59 100 0.0 0.0 0.00 0.00 0.00 58 1018.1
20260508001047 60 117 0.0 0.0 0.00 0.00 0.00 47 1018.1
20260508000543 63 111 0.0 1.0 0.00 0.00 0.00 47 1018.1
20260508000040 63 165 0.0 2.0 0.00 0.00 0.00 39 1018.2
20260507235537 64 147 0.0 1.0 0.00 0.00 0.00 40 1018.2
20260507235035 64 115 0.0 0.0 0.00 0.00 0.00 47 1017.9
20260507234531 65 182 1.0 1.0 0.00 0.00 0.00 37 1018.1
20260507234027 65 114 0.0 0.0 0.00 0.00 0.00 38 1017.9
20260507233524 65 160 0.0 1.0 0.00 0.00 0.00 34 1018.1
20260507233023 64 196 1.0 3.0 0.00 0.00 0.00 38 1018.0
20260507232519 65 136 0.0 1.0 0.00 0.00 0.00 37 1017.9
20260507232016 66 29 0.0 1.0 0.00 0.00 0.00 36 1017.9
20260507231512 66 109 0.0 1.0 0.00 0.00 0.00 33 1018.1
20260507231010 66 90 1.0 2.0 0.00 0.00 0.00 33 1018.2
20260507230507 66 125 0.0 0.0 0.00 0.00 0.00 32 1018.1
20260507230003 65 113 0.0 2.0 0.00 0.00 0.00 37 1018.2
20260507225458 66 279 1.0 3.0 0.00 0.00 0.00 36 1018.1
20260507224954 66 135 1.0 3.0 0.00 0.00 0.00 35 1018.1
20260507224450 67 137 1.0 3.0 0.00 0.00 0.00 37 1018.2
20260507223947 67 13 2.0 5.0 0.00 0.00 0.00 34 1018.1
20260507223443 67 231 3.0 3.0 0.00 0.00 0.00 32 1018.1
20260507222941 66 224 2.0 3.0 0.00 0.00 0.00 35 1018.2
20260507222437 66 302 2.0 5.0 0.00 0.00 0.00 33 1018.3
20260507221933 66 94 1.0 3.0 0.00 0.00 0.00 35 1018.1
20260507221425 67 167 3.0 3.0 0.00 0.00 0.00 35 1018.3
20260507220920 68 167 1.0 3.0 0.00 0.00 0.00 35 1018.0
20260507220413 66 230 1.0 2.0 0.00 0.00 0.00 35 1018.1
20260507215909 67 128 2.0 3.0 0.00 0.00 0.00 33 1018.0
20260507215406 66 259 3.0 3.0 0.00 0.00 0.00 36 1018.1
20260507214903 65 110 0.0 2.0 0.00 0.00 0.00 43 1018.1
20260507214401 66 15 4.0 6.0 0.00 0.00 0.00 34 1017.9
20260507213856 66 126 1.0 2.0 0.00 0.00 0.00 34 1018.0
20260507213353 65 133 0.0 2.0 0.00 0.00 0.00 36 1018.0
20260507212850 67 147 1.0 2.0 0.00 0.00 0.00 34 1018.1
20260507212346 66 128 0.0 1.0 0.00 0.00 0.00 35 1018.3
20260507211842 66 11 3.0 5.0 0.00 0.00 0.00 36 1018.3
20260507211339 65 220 1.0 3.0 0.00 0.00 0.00 38 1018.2
20260507210836 64 275 2.0 2.0 0.00 0.00 0.00 35 1018.3
20260507210333 67 242 4.0 8.0 0.00 0.00 0.00 35 1018.2
20260507205829 66 171 0.0 2.0 0.00 0.00 0.00 38 1018.1
20260507205327 67 154 1.0 3.0 0.00 0.00 0.00 34 1018.3
20260507204822 67 147 3.0 6.0 0.00 0.00 0.00 36 1018.1
20260507204320 68 245 4.0 7.0 0.00 0.00 0.00 34 1018.2
20260507203818 67 248 4.0 6.0 0.00 0.00 0.00 35 1018.3
20260507203315 66 117 1.0 3.0 0.00 0.00 0.00 34 1018.2
20260507202811 66 233 1.0 2.0 0.00 0.00 0.00 34 1018.2
20260507202308 66 46 1.0 3.0 0.00 0.00 0.00 37 1018.4
20260507201803 65 191 1.0 2.0 0.00 0.00 0.00 43 1018.4
20260507201259 66 145 2.0 3.0 0.00 0.00 0.00 36 1018.3
20260507200756 65 186 1.0 5.0 0.00 0.00 0.00 35 1018.2
20260507200252 64 15 4.0 6.0 0.00 0.00 0.00 37 1018.5
20260507195748 62 287 1.0 5.0 0.00 0.00 0.00 42 1018.4
20260507195245 63 106 1.0 2.0 0.00 0.00 0.00 40 1018.7
20260507194743 63 123 1.0 5.0 0.00 0.00 0.00 39 1018.9
20260507194238 65 184 1.0 3.0 0.00 0.00 0.00 39 1018.6
20260507193735 67 158 0.0 2.0 0.00 0.00 0.00 40 1018.7
20260507193232 66 7 2.0 3.0 0.00 0.00 0.00 35 1018.7
20260507192728 67 0 2.0 5.0 0.00 0.00 0.00 39 1018.7
20260507192225 66 153 2.0 2.0 0.00 0.00 0.00 39 1018.6
20260507191721 66 329 1.0 3.0 0.00 0.00 0.00 38 1018.6
20260507191218 64 61 1.0 6.0 0.00 0.00 0.00 42 1018.7
20260507190715 65 318 2.0 6.0 0.00 0.00 0.00 37 1018.7
20260507190214 65 249 2.0 5.0 0.00 0.00 0.00 37 1018.7
20260507185712 66 245 3.0 3.0 0.00 0.00 0.00 37 1018.8